Simultaneous Nadir Overpasses (SNOs) Predictions

Prediction of SNOs between NOAA-21 and PACE Satellite Orbit:

Table of predicted SNOs for the next 14.0 days since TLE Epoch: 2/15/2025
Index Date (NOAA-21) Time (NOAA-21) Lat,Lon (NOAA-21) SZA (NOAA-21 ) Date (PACE) Time (PACE) Lat,Lon (PACE) SZA (PACE ) Distance(km) Time Diff (sec)
1 02/16/2025 01:25:38 80.03, 119.72 94.83 02/16/2025 01:25:42 80.02, 119.85 94.80 2.58 4
2 02/18/2025 05:53:55 81.20, 12.88 100.19 02/18/2025 05:55:07 81.92, 12.70 100.29 79.93 72
3 02/18/2025 06:42:49 -80.02,-139.40 85.99 02/18/2025 06:42:33 -80.01,-139.25 86.00 2.85 16
4 02/20/2025 11:09:18 -80.06, 153.50 86.68 02/20/2025 11:10:14 -80.07, 153.36 86.69 2.81 56
5 02/20/2025 12:00:00 79.95, -38.09 93.11 02/20/2025 11:59:21 79.94, -37.94 93.10 3.13 39
6 02/22/2025 16:26:31 80.07,-105.86 92.53 02/22/2025 16:27:03 80.07,-105.82 92.50 0.73 32
7 02/22/2025 17:17:10 -79.91, 63.04 87.79 02/22/2025 17:16:10 -79.91, 63.14 87.78 1.88 60
8 02/24/2025 21:43:41 -80.03, -4.73 88.38 02/24/2025 21:43:51 -80.02, -4.65 88.40 1.76 10



Historial Predications of SNOs between NOAA-21 and PACE
